Terminal Aerodrome Forecast
Issued by NWS Louisville, KY

Home | Current Version | Previous Version | Text Only | Print | Product List | Glossary On
Versions: 1 2 3 4 5 6 7 8 9 10 11 12 13 14 15 16 17
000
FTUS43 KLMK 262300
TAFBWG
TAF
KBWG 262320Z 2700/2724 18005KT P6SM BKN200
     FM271000 18006KT P6SM BKN050 BKN150
     FM271500 19008KT P6SM -SHRA OVC040=

USA.gov is the U.S. government's official web portal to all federal, state and local government web resources and services.